Tracking 25612 objects as of 19-May-2022
HD Live streaming from Space Station
objects crossing your sky now

CZ-3C DEB

Track CZ-3C DEB now!


NORAD ID: 39340
Int'l Code: 2010-057E
Perigee: 469.0 km
Apogee: 35,679.7 km
Inclination: 19.1 °
Period: 633.9 minutes
Semi major axis: 24445 km
RCS: 0.3142 m2 (medium)
Launch date: October 31, 2010
Source: People's Republic of China (PRC)
Launch site: Xichang Space Center, China (XSC)

Note: This is SATELLITE DEBRIS
aabbcc
Your satellite tracking list
Your tracking list is empty




NASA's NSSDC Master Catalog

Two Line Element Set (TLE):
1 39340U 10057E   22137.91989195  .00000464  00000-0  20842-2 0  9990
2 39340  19.0582 169.9789 7201918 122.6355 326.6919  2.27147866 71127
Source of the keplerian elements: AFSPC